GFSSE_sfc_wetblb_156.txt.gz
Wetbulb
69.91 72.16 75.79 75.02 75.39 75.62 74.96 75.65 74.06 73.38 73.89 74.30 74.89 74.66 74.79 75.53 75.47 75.65 75.43 75.18 75.14 75.16 75.10 74.99 75.05 74.96 74.53 73.84 73.10 73.39 73.31 73.93 74.02 73.94 73.81 73.88 74.19 74.35 73.14 73.73 74.24 71.07 72.28
71.55 73.41 75.92 76.00 75.81 75.83 75.38 74.86 74.45 73.90 73.29 73.30 73.68 74.35 74.35 74.88 75.13 75.22 75.07 74.99 74.66 74.66 74.68 74.72 74.84 74.97 74.78 74.37 73.75 73.01 72.92 73.17 73.58 73.50 73.17 73.53 73.63 74.02 73.47 73.80 73.80 70.64 72.05
72.09 73.73 74.25 76.76 76.12 75.32 74.81 75.50 74.59 73.73 72.95 73.47 73.86 73.73 74.27 74.65 74.69 75.12 74.92 74.60 74.41 74.46 74.77 74.88 74.82 74.49 74.10 73.80 73.40 72.81 72.86 73.24 73.16 72.86 72.44 70.43 71.54 74.04 73.82 73.97 73.18 72.21 72.01
72.81 73.46 73.61 76.36 76.56 75.97 75.19 75.19 74.60 73.82 72.61 73.82 73.56 73.92 73.96 74.51 74.72 74.85 74.58 74.20 74.13 74.50 74.61 74.60 74.36 74.01 73.53 72.95 72.86 72.73 72.72 72.74 72.37 71.72 69.40 69.65 71.31 73.75 73.77 73.51 72.83 71.99 72.28
72.65 73.25 73.72 76.69 76.61 76.10 75.98 75.36 74.71 73.95 72.74 73.76 73.57 73.37 74.23 74.18 74.40 74.42 74.15 73.73 74.21 74.17 74.10 74.18 74.07 73.65 73.30 72.73 72.51 72.41 72.26 72.15 71.38 69.38 69.00 69.57 70.61 72.26 73.53 73.20 72.76 72.22 72.84
71.83 72.33 74.32 76.59 76.16 76.17 75.97 75.65 74.78 73.93 72.99 73.20 73.33 74.05 74.17 74.44 74.02 73.94 73.83 74.31 74.08 73.69 73.74 73.79 73.55 73.25 72.98 72.24 71.65 71.55 71.15 71.01 69.23 67.28 67.75 69.83 70.39 72.89 73.14 72.70 72.56 73.11 72.83
71.29 71.87 73.66 76.28 75.80 75.86 75.74 75.26 74.54 73.23 72.71 72.77 73.23 73.66 74.08 74.30 74.02 73.79 73.69 73.78 74.01 73.48 73.55 73.47 73.18 72.62 72.61 71.63 71.23 70.64 69.97 69.48 65.31 66.09 67.18 68.71 70.02 72.13 72.66 72.42 72.30 72.50 72.37
71.46 71.89 73.53 75.77 76.06 75.90 75.55 74.74 73.90 73.23 73.06 72.76 73.07 73.54 73.76 73.74 73.69 73.48 73.87 73.58 73.60 73.31 73.42 73.19 72.73 72.39 71.90 71.05 70.51 69.82 69.35 68.18 65.50 65.50 66.82 67.99 71.39 71.59 71.92 71.60 71.54 71.63 71.80
72.10 72.07 73.08 72.20 73.18 75.38 75.57 75.12 74.20 74.23 73.52 73.07 73.12 73.05 73.64 73.67 73.77 73.58 73.59 73.24 73.16 73.05 73.13 72.60 72.28 71.97 71.03 70.53 69.84 69.07 68.27 66.85 62.14 64.71 66.82 67.48 71.24 70.88 71.36 71.00 70.95 71.16 71.36
71.62 72.02 71.45 71.59 72.12 72.09 72.39 74.91 75.06 74.46 73.79 73.31 73.78 73.60 73.74 73.64 73.41 73.29 73.12 72.88 72.94 72.68 72.55 72.38 71.81 71.19 70.27 69.65 68.96 68.12 67.32 66.05 62.00 64.44 65.94 67.95 70.59 70.78 70.79 70.82 70.60 70.59 70.52
69.57 70.59 70.79 70.94 70.93 70.77 70.87 71.56 74.05 73.86 73.75 73.31 72.96 73.41 72.19 69.39 70.33 71.16 71.88 72.78 72.40 72.27 72.37 71.85 71.25 70.46 69.54 68.91 67.71 66.92 64.71 60.73 61.11 62.56 66.56 69.97 69.77 70.17 69.67 69.31 69.30 69.34 69.54
65.73 68.16 69.50 69.77 69.41 68.98 71.12 70.29 69.96 70.28 69.74 69.26 69.15 67.85 67.07 67.58 68.48 69.80 71.22 72.12 72.07 71.91 71.73 71.28 70.74 69.90 66.62 63.15 63.38 63.50 60.41 60.52 61.36 63.16 65.13 68.94 68.57 68.61 67.98 67.24 67.15 67.20 67.39
64.33 65.96 68.23 68.79 68.97 69.01 69.17 68.20 67.73 66.80 67.32 66.80 66.40 66.10 65.83 66.24 66.92 66.57 67.48 67.15 67.15 70.16 68.27 68.80 66.79 62.35 60.86 60.04 58.82 58.79 58.63 59.07 60.61 64.10 65.90 67.90 66.91 67.19 67.37 66.79 66.70 66.74 66.84
62.71 64.80 66.53 67.58 67.88 67.98 67.60 67.78 66.94 65.47 66.69 65.18 64.70 64.93 64.48 63.26 63.80 63.99 64.39 65.29 65.05 65.82 65.68 63.05 61.27 59.79 59.02 58.39 57.59 57.16 57.58 58.02 60.33 62.85 65.09 65.77 67.23 66.73 66.87 66.60 66.90 66.76 66.56
61.14 62.94 65.10 66.20 66.45 66.88 65.88 66.92 66.96 66.83 67.03 66.23 64.19 64.09 63.47 62.57 61.66 62.95 63.77 63.76 64.19 64.14 64.98 63.11 60.93 59.48 57.83 57.37 57.01 56.72 56.75 57.45 60.41 61.50 63.38 66.82 67.15 66.59 67.21 67.49 66.90 66.44 66.12
58.00 60.77 62.61 64.82 65.27 65.88 66.15 66.52 66.31 66.65 67.23 66.26 65.45 64.61 62.35 62.38 61.96 62.02 62.97 63.39 63.61 65.01 64.28 63.93 61.30 59.55 57.72 57.02 56.62 56.55 56.19 56.86 59.85 60.92 61.78 64.46 66.90 67.08 66.68 66.52 66.24 65.98 65.69
50.68 52.51 53.66 61.61 64.77 64.74 66.56 66.73 66.69 65.73 66.72 66.37 65.80 64.34 62.45 62.66 62.14 61.79 61.84 62.72 63.26 64.17 64.19 63.07 61.08 59.54 58.46 57.72 55.39 55.90 56.27 56.49 59.40 60.36 61.46 62.63 64.22 66.27 66.05 65.51 65.40 65.50 65.51
50.18 51.18 52.14 56.34 64.00 64.10 64.81 65.94 65.65 66.02 65.98 66.11 66.11 64.86 64.54 63.46 61.19 60.63 61.18 61.45 63.38 63.16 62.37 61.13 60.54 58.93 58.23 57.20 55.25 55.56 55.70 56.82 58.73 59.66 60.52 60.75 60.72 61.71 64.79 65.86 64.90 65.08 64.97
53.56 54.35 54.59 55.11 54.59 62.05 62.95 65.33 64.74 64.61 65.16 65.26 65.42 65.25 64.92 63.75 61.92 60.88 61.15 61.43 63.74 62.48 61.05 60.47 60.03 59.97 57.93 57.01 56.42 55.04 54.91 55.66 57.21 59.22 58.94 59.07 59.53 59.77 60.21 64.98 65.27 64.95 63.99
55.23 55.55 55.83 56.34 55.40 53.75 58.27 63.96 63.18 63.33 63.79 63.30 64.12 64.88 64.16 63.81 62.18 61.36 60.82 62.10 62.37 61.07 60.51 59.76 59.41 59.64 58.83 58.07 57.15 54.32 53.48 54.34 55.65 56.67 56.28 57.78 57.86 58.30 58.33 58.18 58.63 61.33 64.00
54.56 55.07 55.67 55.88 54.94 53.09 53.27 55.63 59.19 59.32 61.07 61.43 62.78 63.40 63.77 62.75 61.81 61.36 61.30 61.82 61.11 60.90 60.04 59.17 59.17 58.29 57.97 57.66 55.29 53.78 53.09 53.05 53.06 54.25 55.44 55.95 56.14 55.97 56.36 56.83 56.73 57.01 59.36
53.96 55.23 56.02 56.67 55.56 52.49 53.32 55.24 57.02 57.59 58.29 58.80 61.38 61.37 62.47 61.79 61.53 61.19 61.18 62.03 61.18 59.99 59.80 58.79 58.23 57.76 57.94 57.59 55.42 53.22 52.01 53.37 53.23 53.75 53.98 54.82 54.09 54.63 55.13 55.22 54.91 54.89 54.85
53.03 54.48 56.60 56.61 56.41 52.84 53.53 54.91 56.54 57.30 57.39 57.18 59.19 60.73 60.89 60.93 61.56 61.52 61.02 61.65 61.46 60.20 59.69 58.78 58.33 57.95 56.48 57.08 57.24 52.75 50.22 49.81 50.96 50.54 52.19 52.56 52.58 52.62 52.86 53.04 53.48 53.15 52.93
53.78 55.83 56.16 56.42 56.59 56.97 53.98 54.41 54.49 54.03 53.87 55.33 56.71 59.92 61.13 61.12 60.49 60.94 61.02 61.20 61.32 60.77 60.25 58.77 59.06 58.21 57.75 55.53 56.34 53.51 51.99 52.62 50.07 48.22 48.58 48.59 50.76 51.41 50.62 51.22 51.29 51.31 50.12
54.98 54.77 55.51 55.95 56.60 55.51 53.76 54.39 54.61 53.76 54.72 57.72 58.76 59.41 59.80 60.70 61.60 61.31 61.02 61.37 61.62 60.85 60.61 59.48 58.55 57.71 57.95 56.61 56.03 49.39 50.20 48.65 49.67 49.01 46.84 46.89 47.01 46.48 46.53 47.48 48.77 49.11 48.63
54.24 55.04 55.23 57.23 57.34 55.98 55.79 55.76 54.80 54.23 55.05 56.59 56.50 57.70 58.17 58.62 60.23 61.62 61.27 61.28 62.08 60.89 60.55 60.17 59.10 57.97 57.77 57.28 56.97 51.29 52.32 51.19 47.97 47.33 45.58 44.41 46.84 45.36 44.97 45.27 46.17 47.00 47.92

GFSSE_sfc_wetblb_159.txt.gz
Wetbulb
72.26 74.49 76.09 75.53 75.35 75.30 75.21 74.47 73.92 74.25 74.78 74.86 74.73 75.11 75.60 75.38 75.79 75.62 75.54 75.05 75.15 74.80 74.79 75.21 74.86 74.35 73.87 73.44 73.49 74.04 73.93 73.99 74.13 74.18 74.03 74.24 74.67 73.65 73.18 72.99 72.86 72.02 74.33
73.48 74.37 76.18 75.53 75.70 75.11 75.26 74.97 74.05 73.45 73.83 74.18 74.62 74.43 75.12 75.37 75.23 75.24 74.86 74.84 74.64 74.61 74.80 74.99 74.71 74.85 74.41 73.74 73.28 73.70 73.82 73.62 73.92 73.74 73.37 73.90 73.97 73.31 72.42 73.38 73.64 73.25 74.01
73.20 74.33 74.35 76.43 76.38 75.44 75.73 75.21 74.51 73.63 73.01 73.28 73.71 74.12 74.59 74.86 75.12 75.14 74.58 74.49 74.58 74.85 75.15 74.90 74.77 74.34 73.89 73.54 73.13 73.16 73.20 73.49 73.38 73.18 73.56 73.58 73.46 73.90 72.52 73.18 74.00 73.83 74.07
73.59 74.21 73.77 76.57 76.92 76.12 75.40 75.41 74.60 73.48 72.88 73.65 73.86 73.65 74.15 74.69 74.92 74.82 74.39 74.25 74.49 74.74 75.03 74.73 74.14 73.72 73.60 73.16 72.63 72.75 73.10 73.05 72.80 72.60 72.50 72.57 72.39 73.71 73.58 72.30 72.93 73.25 73.91
73.76 74.18 73.78 77.06 76.92 76.36 76.17 75.28 74.67 73.83 72.59 74.09 73.18 73.84 73.84 74.49 74.68 74.45 74.23 74.21 74.44 74.80 74.62 74.40 74.10 73.45 73.31 72.75 72.23 72.57 72.56 72.42 71.96 72.30 72.36 72.56 73.13 73.16 73.28 72.74 72.42 72.52 73.25
73.90 74.36 74.81 76.87 77.02 76.40 76.24 75.77 74.94 74.15 72.94 73.96 73.43 73.31 74.40 74.35 74.39 74.27 73.94 74.14 74.38 74.41 74.25 74.02 73.63 73.19 72.60 72.16 72.08 72.03 71.87 71.46 71.98 72.09 72.38 72.48 72.67 73.16 73.06 72.66 72.77 73.47 72.96
73.65 74.22 74.01 76.38 76.32 76.33 76.47 75.72 75.05 74.22 73.23 73.43 73.43 74.33 74.07 73.79 74.18 73.95 74.03 74.31 73.97 74.09 74.11 73.67 73.23 72.79 72.05 71.51 71.08 71.03 70.97 70.60 71.04 71.45 71.72 71.81 71.93 72.77 72.90 72.36 72.18 72.26 72.33
73.42 73.88 73.91 75.85 76.09 76.08 75.86 75.58 74.83 73.65 73.08 73.08 73.42 73.99 73.74 73.84 73.92 73.70 73.71 74.07 73.76 73.82 73.73 73.28 72.79 72.49 71.74 71.08 70.44 69.99 69.88 69.72 70.49 70.73 71.03 71.00 71.93 71.83 72.20 71.94 71.84 71.93 72.00
73.79 73.78 74.44 75.09 74.70 75.53 75.63 75.51 74.62 73.34 73.40 73.05 73.29 73.76 73.85 73.65 73.57 73.85 73.41 73.77 73.62 73.80 73.49 73.01 72.59 71.98 71.00 70.60 69.99 69.21 69.02 68.70 69.55 70.01 70.09 70.52 71.54 71.25 71.68 71.49 71.29 71.32 71.38
73.45 73.78 73.91 74.70 74.44 74.45 74.98 75.30 75.03 74.75 74.55 74.18 74.14 73.93 74.26 74.27 73.54 73.52 73.29 73.43 73.40 73.36 72.84 72.47 72.08 71.38 70.77 69.89 69.00 68.60 68.27 68.59 69.07 69.53 69.86 70.23 71.01 71.15 71.10 70.74 70.77 70.65 70.81
72.38 73.20 73.65 73.79 73.83 73.59 74.30 74.60 75.11 74.81 73.55 73.58 73.95 73.70 73.49 73.56 73.41 73.08 72.87 73.49 73.17 72.91 72.41 72.13 71.73 70.75 69.96 69.05 68.20 67.32 66.91 67.19 68.02 68.25 68.79 70.54 70.25 70.29 70.18 69.98 69.64 69.77 69.78
70.77 72.06 73.02 73.22 73.43 73.52 72.99 73.80 73.74 73.70 73.55 72.89 73.17 72.88 72.66 72.65 73.08 72.55 72.31 72.92 72.83 72.55 72.14 71.77 71.24 70.04 69.27 67.41 66.83 65.70 65.86 66.47 66.71 67.50 68.02 69.44 68.90 68.86 68.57 68.10 67.73 67.64 67.59
70.07 71.12 72.21 72.91 73.12 72.84 72.69 73.04 72.88 72.70 73.28 72.40 72.07 72.20 72.05 72.03 72.58 72.33 72.28 72.08 72.43 71.99 72.01 71.22 70.12 68.40 66.77 65.65 65.18 65.11 65.26 65.57 65.76 66.72 67.40 68.44 67.64 67.40 67.33 66.86 66.81 67.13 67.01
66.66 69.49 71.63 72.07 72.00 72.16 72.51 72.14 71.77 71.08 71.31 71.16 71.12 71.07 70.78 69.97 70.86 71.10 71.28 70.57 71.32 71.31 70.76 70.06 68.16 66.33 65.01 64.74 64.78 64.45 64.72 64.96 65.28 65.46 66.24 67.61 67.73 66.93 67.84 68.06 67.65 67.38 67.04
64.82 67.37 69.32 70.50 71.02 71.50 71.15 69.74 69.37 68.76 69.70 70.15 69.91 70.02 69.98 69.22 68.95 68.51 68.27 68.32 69.25 70.24 69.87 67.83 66.35 64.79 63.76 63.90 63.90 64.02 64.03 64.34 64.42 64.02 65.30 67.02 67.89 68.00 67.98 68.00 67.50 66.93 66.24
64.35 65.56 67.61 68.76 70.01 70.38 70.18 68.05 68.12 68.87 68.40 68.38 68.46 68.91 68.49 68.54 67.82 67.71 66.79 67.10 67.97 68.37 67.90 64.96 65.04 62.87 63.02 63.41 62.85 63.42 63.58 63.89 63.43 64.02 64.93 66.25 67.70 67.95 67.50 67.45 67.04 66.41 65.42
61.34 63.20 64.39 66.92 68.76 69.42 69.11 67.59 67.70 68.22 68.46 67.81 67.65 67.01 66.45 66.96 67.12 67.19 66.98 66.50 67.72 67.56 67.10 65.13 63.48 60.70 59.90 62.03 62.14 62.75 63.22 63.47 62.48 62.91 64.83 66.13 66.37 66.80 66.80 66.26 65.72 65.62 65.30
56.32 56.30 57.31 58.44 65.81 67.81 67.78 67.44 66.81 67.16 67.83 67.39 67.73 66.82 65.77 65.09 65.65 65.78 65.26 64.85 65.66 65.28 65.56 64.59 61.33 59.73 59.54 59.09 59.56 60.65 62.51 63.01 61.56 62.31 62.64 63.30 64.28 64.93 65.58 66.08 65.46 65.04 64.93
55.78 56.82 57.54 58.24 58.17 65.33 67.36 67.00 65.78 65.80 66.33 66.85 67.13 66.06 66.65 66.40 63.95 63.18 64.41 64.93 64.98 63.93 64.31 63.36 61.33 60.82 58.45 57.62 57.40 59.42 61.32 62.01 61.07 61.35 61.13 61.70 62.34 63.58 64.34 65.13 65.30 64.75 64.21
58.31 58.71 58.90 59.74 59.40 58.21 64.43 66.20 65.01 64.36 64.59 65.35 66.01 66.21 66.24 66.11 64.72 62.66 63.31 64.13 63.69 63.40 62.36 62.56 60.35 59.92 58.61 58.20 57.89 57.26 59.83 60.71 59.75 59.93 60.20 61.77 63.01 63.57 63.68 63.54 63.50 63.12 63.98
57.90 58.39 58.67 58.95 59.63 58.22 58.50 61.66 62.17 61.57 62.50 62.46 65.17 65.88 66.40 65.03 64.42 63.38 62.40 63.01 63.74 62.13 62.31 61.52 60.09 58.26 57.88 57.14 55.98 56.72 57.14 57.06 58.20 58.67 60.56 62.15 61.87 62.10 62.41 62.88 62.88 63.01 63.18
57.66 58.96 59.72 60.14 60.28 57.81 58.28 59.97 62.17 62.66 62.84 63.73 63.65 64.36 65.54 64.06 64.14 63.00 62.37 62.14 61.94 62.32 60.48 60.77 60.03 58.83 58.47 58.31 56.13 55.77 53.98 55.13 56.14 58.47 60.13 60.38 60.59 61.06 61.06 61.21 61.88 61.96 62.02
57.59 58.80 59.91 60.05 60.08 58.08 57.78 59.47 61.14 61.94 62.35 61.72 60.98 61.95 63.60 63.95 63.18 62.84 62.53 62.31 61.65 61.82 59.90 60.15 60.00 59.45 56.64 58.04 57.89 55.98 52.79 50.97 54.45 55.27 57.37 58.98 59.06 59.56 59.79 60.08 60.28 59.94 60.25
57.88 59.71 59.46 59.56 59.98 59.44 57.68 58.52 58.81 58.62 59.05 61.09 61.82 62.75 62.43 62.43 62.20 62.63 61.32 60.89 60.84 61.98 61.16 60.23 60.87 60.08 59.20 56.20 57.43 55.23 55.92 56.53 52.63 51.65 54.91 55.76 57.29 57.61 58.37 58.55 58.63 58.07 58.22
58.28 59.00 59.50 59.33 59.56 58.55 58.94 58.79 59.09 58.76 59.90 60.82 60.40 60.54 60.33 61.01 61.88 62.53 62.05 61.83 62.28 61.89 61.62 60.42 59.97 59.47 58.69 57.53 56.61 52.51 54.50 54.08 55.33 53.75 51.18 52.79 54.11 55.34 56.12 56.58 56.85 56.77 56.36
58.14 58.72 58.22 58.23 58.69 59.07 58.75 59.32 59.48 59.23 58.06 58.44 58.98 58.23 59.55 60.32 62.01 61.82 62.27 62.51 62.92 62.63 62.08 61.31 60.44 59.85 58.80 58.38 57.78 55.21 54.96 54.53 52.70 53.19 51.95 52.44 53.54 51.92 52.99 53.30 54.14 54.82 55.15

GFSSE_sfc_wetblb_162.txt.gz
Wetbulb
73.45 75.31 76.33 75.67 76.01 75.24 74.41 74.01 74.60 75.19 74.72 74.89 75.40 75.64 75.50 75.63 75.67 75.62 75.56 75.13 74.83 74.42 75.01 74.71 74.03 73.97 73.87 73.70 74.27 74.32 74.22 73.92 74.15 74.15 74.04 73.69 73.52 72.70 73.48 74.95 74.26 73.15 73.73
74.14 75.12 76.37 76.24 76.31 75.40 75.06 74.52 73.73 74.32 74.54 74.90 74.31 74.95 75.26 75.53 75.53 75.30 74.94 74.86 74.58 74.42 74.83 74.89 74.71 74.10 73.56 73.28 74.09 74.25 74.00 73.94 73.87 73.57 74.08 74.06 73.12 73.11 73.64 74.16 74.93 74.06 74.08
73.41 74.34 74.62 76.47 76.47 75.08 76.22 74.95 74.07 73.43 73.62 73.89 74.32 74.16 74.47 75.02 75.17 75.04 74.71 74.55 74.42 74.72 74.97 74.64 74.46 74.06 73.41 73.36 73.31 73.26 73.41 73.67 73.18 73.37 74.43 74.24 73.63 72.58 73.38 74.46 74.70 74.12 74.07
73.49 73.90 73.27 76.36 77.06 76.30 76.15 75.26 74.57 73.51 73.29 73.51 74.04 73.85 74.34 74.48 74.86 74.75 74.36 74.53 74.71 75.11 74.78 74.34 73.87 73.63 73.16 72.78 72.80 72.73 73.27 72.99 72.58 74.35 73.34 72.27 73.10 73.40 72.95 73.36 73.87 73.59 73.55
74.34 74.09 73.01 76.79 76.96 76.64 76.11 75.36 74.62 73.54 73.21 73.99 73.81 73.94 74.07 74.34 74.68 74.31 74.38 74.06 74.76 74.88 74.53 74.02 73.64 73.26 72.87 72.49 72.37 72.62 72.76 72.52 73.45 73.41 73.00 73.16 73.12 73.00 72.98 72.99 73.60 73.21 73.25
74.99 75.01 75.27 77.09 77.01 76.59 76.13 75.61 74.87 74.01 72.72 74.70 73.25 74.14 73.85 74.50 74.44 74.19 74.25 74.36 74.41 74.54 74.36 73.83 73.49 72.78 72.51 72.23 72.12 72.32 71.89 72.07 74.04 72.89 73.24 73.10 72.72 73.13 73.03 72.39 73.21 73.52 72.74
74.93 75.35 74.40 76.75 76.79 76.60 76.41 75.90 75.11 74.39 73.12 74.11 73.30 73.47 74.46 74.39 74.63 74.23 74.02 73.78 74.21 74.30 74.20 73.64 73.16 72.42 72.03 71.55 71.52 71.44 71.33 72.16 72.61 72.11 71.79 71.93 72.49 72.76 72.82 72.44 72.32 72.23 72.34
74.83 74.92 74.49 76.15 76.89 76.65 76.34 75.89 75.20 74.43 73.43 73.24 73.37 74.29 73.84 74.21 74.33 73.96 73.74 73.68 74.04 73.93 73.74 73.36 72.88 72.19 71.59 70.88 70.36 70.36 70.22 71.64 71.67 70.87 71.10 71.64 72.04 72.22 72.53 72.40 72.05 71.75 71.90
75.01 74.72 74.78 74.73 75.23 75.99 76.05 75.40 75.17 74.12 73.31 73.18 73.35 73.92 73.99 74.17 74.05 73.72 73.89 73.70 73.95 73.69 73.30 73.14 72.65 71.97 70.98 70.47 69.71 69.69 69.50 70.43 71.04 70.11 69.79 70.90 71.79 71.90 72.08 71.62 71.45 71.22 71.19
74.55 74.64 74.71 75.27 74.85 74.37 74.28 75.11 75.07 74.04 74.01 73.44 73.68 73.94 74.26 74.17 74.05 73.75 73.54 73.76 73.70 73.40 73.01 72.75 72.19 71.51 70.60 69.97 69.13 69.27 69.14 70.51 70.41 69.80 69.40 70.41 70.99 71.20 71.23 70.98 70.80 70.62 70.52
73.83 74.54 74.81 74.99 74.65 74.86 74.54 74.40 74.86 74.60 74.70 74.20 74.05 73.95 73.20 73.37 73.26 73.75 73.53 73.62 73.42 73.10 72.72 72.50 71.89 71.09 70.06 69.18 68.65 67.89 68.37 68.66 69.04 69.37 69.78 70.31 70.27 70.48 70.40 70.04 69.56 69.30 69.15
72.02 73.50 74.77 74.90 74.66 74.58 73.53 74.31 74.29 74.15 74.05 73.80 73.38 73.02 71.47 72.54 72.78 72.65 72.88 72.69 72.98 72.80 72.44 72.12 71.64 70.53 69.90 68.49 67.48 66.76 67.37 67.66 68.04 68.79 68.41 69.73 68.98 69.31 69.01 68.54 68.15 67.82 67.61
71.21 73.03 74.17 74.63 74.84 74.18 73.62 74.03 73.70 73.56 73.50 73.44 73.39 73.70 73.21 71.79 72.44 72.28 72.20 72.18 72.95 72.16 72.63 71.76 70.74 69.92 69.20 68.05 66.84 66.71 66.67 66.81 67.36 67.61 68.05 69.00 68.28 67.94 67.65 67.19 67.46 67.62 67.59
69.46 72.26 73.64 74.16 73.67 73.91 73.68 73.21 73.35 72.79 72.79 72.72 72.98 73.30 72.50 72.32 71.69 71.33 71.35 71.55 72.23 71.55 70.86 71.13 71.15 69.44 67.22 66.49 66.53 65.64 65.57 65.98 66.32 66.22 66.21 67.86 67.86 67.29 68.25 68.48 68.03 67.40 66.96
65.22 69.23 72.43 74.03 73.65 73.24 73.41 73.21 73.17 73.03 72.77 72.75 72.93 73.01 72.74 71.93 71.36 71.28 71.19 71.42 71.69 71.60 71.02 70.82 69.86 68.52 65.41 64.73 65.88 65.41 65.11 65.43 65.59 64.53 65.32 67.66 68.45 68.25 68.06 68.17 67.50 66.86 66.25
64.76 67.08 70.71 72.23 73.48 73.34 72.59 72.90 72.55 72.27 72.73 72.58 72.30 72.25 72.10 71.52 70.85 70.47 70.18 70.18 71.05 71.53 71.84 69.79 68.64 66.97 64.66 64.04 64.70 65.04 64.22 64.88 65.05 64.35 65.04 67.04 68.13 68.17 67.63 67.45 66.76 66.22 65.77
62.96 66.86 69.25 70.68 71.82 72.04 71.79 71.99 71.55 71.67 71.71 70.43 70.60 70.75 71.32 70.84 70.15 69.74 69.31 69.35 69.99 70.13 69.22 68.19 67.15 65.56 63.76 63.98 62.97 64.40 64.66 64.44 64.33 64.37 65.53 67.06 66.85 67.13 67.39 66.54 66.04 65.88 65.36
61.80 65.01 67.49 68.03 69.30 70.34 70.44 70.04 69.37 70.17 69.22 70.46 69.96 68.46 68.21 68.75 68.83 69.33 68.57 68.38 68.84 69.06 67.92 67.11 65.82 64.02 62.82 62.81 61.73 62.14 64.04 64.02 62.89 64.14 66.13 66.57 65.55 65.08 65.90 66.37 65.59 65.06 65.31
60.41 62.45 63.05 63.11 64.11 67.97 69.48 68.92 68.17 67.89 68.54 68.15 68.04 67.81 68.92 68.56 68.63 67.73 67.49 67.16 66.68 65.98 65.76 65.62 64.58 63.92 59.84 59.33 59.11 60.51 61.19 62.15 62.25 62.94 63.68 63.63 64.33 64.97 64.66 65.78 65.35 65.30 64.70
60.71 61.33 62.22 62.19 62.45 63.00 66.55 67.65 66.81 66.52 66.89 66.75 65.92 66.54 67.40 68.18 67.60 67.03 66.29 65.90 65.14 65.17 64.07 64.60 63.80 63.88 61.39 59.68 59.09 58.69 60.10 61.04 62.02 61.75 61.61 62.34 63.36 64.15 63.72 63.56 63.64 63.61 64.46
61.55 61.91 62.34 62.41 62.88 62.70 62.27 64.33 64.84 64.96 65.92 65.00 65.43 67.51 65.93 66.76 66.73 65.67 65.51 65.52 64.01 63.47 63.12 63.07 61.61 59.56 58.21 58.19 57.77 56.89 57.35 59.56 60.21 60.83 61.77 61.85 62.54 63.70 63.28 63.44 63.30 62.97 62.72
60.62 61.69 62.29 62.64 63.29 62.90 62.50 62.91 63.98 64.52 64.93 64.90 64.86 66.57 67.29 66.28 65.36 66.20 64.96 65.01 64.12 62.38 61.80 60.94 59.46 58.13 57.54 58.45 56.92 56.61 53.74 55.77 57.89 59.81 61.43 62.11 62.22 62.95 62.51 62.39 62.57 62.94 63.00
60.32 61.41 61.96 62.77 63.08 63.07 62.24 62.54 63.06 64.09 64.60 63.22 64.33 64.94 65.78 66.01 65.02 64.49 64.21 64.13 64.39 62.71 60.78 61.03 60.61 59.52 56.66 58.13 58.92 57.20 53.09 52.58 55.50 57.19 59.55 60.69 61.60 61.39 61.26 61.36 61.72 61.64 62.04
60.68 62.23 62.72 62.76 62.69 62.67 61.84 61.31 61.64 61.04 60.60 62.77 64.03 64.70 65.23 65.74 64.45 63.52 64.23 64.11 63.62 62.82 61.84 61.70 61.64 60.20 58.87 56.60 57.65 56.56 55.83 56.56 53.36 52.44 56.90 59.25 60.39 59.51 59.82 60.47 60.56 60.45 60.64
61.24 61.94 62.66 62.66 62.69 63.06 62.01 61.57 61.22 60.64 61.48 63.14 63.91 63.77 64.58 63.87 63.17 63.04 64.19 64.08 62.69 62.28 62.21 61.43 61.04 60.31 59.70 58.51 57.38 54.63 54.46 55.97 56.75 53.64 52.30 54.80 58.10 59.27 59.47 59.48 59.49 59.40 59.39
61.27 61.84 61.56 61.68 61.78 62.22 61.97 61.89 61.71 61.45 61.65 61.59 62.20 61.03 61.45 61.43 61.51 62.24 63.28 63.37 62.74 62.00 62.58 61.62 61.58 60.79 60.33 59.61 57.92 55.16 54.75 54.80 54.37 54.36 53.31 54.11 54.39 56.60 57.24 58.39 58.85 58.96 59.13

GFSSE_sfc_wetblb_165.txt.gz
Wetbulb
73.89 74.82 76.56 76.12 75.24 74.90 74.89 74.97 75.12 74.87 75.15 75.92 75.58 75.52 75.48 75.67 75.44 75.63 75.27 74.91 74.42 74.37 74.66 73.97 74.02 73.88 73.52 74.31 74.34 73.93 73.83 74.33 74.40 73.66 72.99 73.56 74.21 74.69 74.85 75.41 74.60 72.85 73.74
73.75 74.45 76.55 76.92 75.74 75.11 74.24 74.38 74.71 74.94 74.69 74.52 74.88 75.30 75.17 75.36 75.40 75.12 74.72 74.56 74.27 74.44 74.89 74.62 74.13 73.66 73.25 73.79 74.09 73.85 73.52 74.00 74.06 73.88 73.86 73.14 73.76 74.51 74.41 74.89 74.51 73.57 74.34
73.10 73.96 73.91 76.85 76.23 75.42 75.10 74.30 73.71 74.22 74.35 74.68 74.14 74.40 74.70 74.79 74.77 74.74 74.56 74.24 74.07 74.52 74.91 74.71 74.12 73.42 73.33 73.28 73.78 73.86 73.29 73.25 73.45 74.52 74.21 72.33 71.66 74.09 74.33 74.78 74.30 73.92 74.25
73.25 73.81 72.03 76.75 77.02 76.07 75.98 74.77 73.94 73.18 73.56 73.79 73.75 73.96 74.21 74.70 74.57 74.56 74.32 74.31 74.20 74.53 74.53 74.04 73.55 73.28 73.03 72.86 72.81 72.77 72.79 72.85 74.20 74.12 72.55 72.17 71.65 73.62 74.08 73.81 73.92 73.86 73.82
72.58 73.44 73.26 76.51 77.05 76.54 76.07 75.21 74.29 73.24 73.24 73.80 73.88 73.19 74.09 74.59 74.59 74.50 74.29 74.34 74.20 74.53 74.23 73.79 73.36 72.94 72.60 72.48 72.79 72.53 72.28 72.61 72.76 72.95 72.57 72.69 72.13 72.36 73.36 73.47 73.29 73.30 73.30
72.85 73.31 74.50 76.55 76.38 76.51 76.27 75.44 74.54 73.45 73.23 74.34 73.39 74.06 73.50 74.45 74.49 74.34 74.31 74.34 74.28 74.09 74.04 73.56 73.13 72.71 72.21 71.99 72.49 72.07 72.08 72.99 73.11 71.99 72.36 72.20 71.92 72.93 72.98 72.83 73.02 73.15 72.90
74.09 73.96 74.39 76.98 76.64 76.32 76.30 75.79 74.91 73.96 72.78 74.72 72.82 73.63 73.84 74.20 74.41 74.33 74.27 74.04 74.20 74.15 73.88 73.44 72.77 72.43 71.95 71.75 71.66 71.45 71.63 72.82 71.33 71.45 71.38 71.84 71.66 72.64 72.90 72.65 72.55 72.41 72.35
73.44 74.29 74.25 76.58 76.76 76.70 76.22 75.58 75.20 74.40 73.19 74.11 73.21 73.87 74.19 74.15 74.47 74.04 74.07 73.86 74.11 74.09 73.80 73.28 72.53 71.95 71.31 70.82 70.70 70.41 70.96 72.18 70.59 70.31 70.90 71.15 71.90 72.37 72.60 72.29 71.99 71.90 71.89
73.94 73.88 74.14 74.64 75.63 76.21 76.41 75.72 74.96 74.75 73.65 73.07 73.33 74.10 73.77 74.08 74.29 73.79 73.35 73.64 73.93 73.83 73.60 73.20 72.42 71.80 70.94 70.24 69.77 69.48 70.02 71.56 69.61 70.06 70.00 70.26 71.44 71.67 71.85 71.65 71.24 71.09 70.94
73.50 73.63 73.84 73.48 74.44 74.38 74.07 75.08 74.91 74.71 73.87 73.41 73.51 74.07 74.28 74.03 73.77 73.67 73.49 73.41 73.61 73.54 73.22 73.00 72.19 71.67 70.58 69.63 69.25 68.68 69.48 70.60 69.77 69.55 69.74 69.67 71.11 71.40 71.20 70.58 70.14 69.84 69.86
72.63 73.10 73.68 73.88 73.94 74.18 74.44 74.35 73.91 74.39 74.55 74.30 74.06 74.00 73.47 72.75 73.25 73.27 73.11 73.33 72.93 73.28 72.91 72.58 71.95 71.12 70.07 69.13 68.47 68.52 69.71 68.03 69.09 69.08 68.91 70.01 70.30 70.49 70.22 69.42 69.08 68.89 68.66
70.87 71.86 72.27 73.25 73.63 73.90 73.80 74.72 74.12 73.93 72.71 73.16 72.49 71.80 71.32 71.35 71.81 72.30 72.60 72.90 72.86 72.85 72.37 72.02 71.82 70.77 70.01 68.01 66.74 67.57 67.38 67.27 68.81 67.83 67.80 69.96 69.49 69.22 68.76 68.25 67.94 67.84 67.58
70.35 71.39 71.82 73.14 73.94 73.44 73.68 74.63 74.29 75.02 74.27 73.15 72.95 73.13 72.76 71.63 71.43 71.64 72.17 71.68 71.69 71.93 72.10 71.31 70.69 69.60 68.91 67.93 66.53 66.62 66.76 66.76 67.60 67.04 67.77 69.28 68.68 68.15 67.96 68.31 68.05 67.23 67.01
66.73 70.57 71.89 72.75 72.84 73.25 73.67 72.70 72.86 72.93 73.18 73.22 73.04 73.17 72.70 71.98 71.50 71.28 70.68 69.64 72.70 71.32 70.59 70.90 70.44 70.26 68.45 67.63 66.73 65.90 65.92 65.78 66.16 65.60 66.58 68.37 68.19 68.20 68.99 68.47 67.64 67.08 66.55
64.50 67.80 70.47 72.08 71.98 71.86 72.18 71.51 71.28 70.91 71.51 71.80 72.17 72.54 72.95 72.72 71.49 71.51 71.08 70.87 71.29 71.42 71.16 70.86 70.14 69.92 67.86 66.00 65.49 65.04 65.00 65.13 65.14 64.74 65.52 67.80 68.80 68.43 68.20 67.93 67.15 66.06 65.95
63.12 65.71 68.23 70.11 71.38 70.90 70.35 70.49 70.16 70.21 70.29 70.73 70.73 71.27 71.82 71.63 70.41 69.60 70.51 70.44 70.99 72.11 71.09 71.08 70.75 68.56 66.36 65.55 64.91 64.59 64.47 64.96 64.63 64.36 64.63 66.77 67.68 68.03 67.68 67.44 66.77 65.90 65.65
62.53 63.69 66.45 68.49 70.46 71.10 70.25 70.19 71.43 71.15 71.14 70.00 70.33 70.50 70.21 69.96 70.00 69.74 67.84 68.49 69.76 70.88 70.07 70.47 69.14 67.82 65.52 64.69 64.10 62.81 62.60 63.47 63.73 63.54 65.08 65.70 66.23 66.65 67.51 66.49 66.19 65.81 65.10
61.85 62.55 66.51 67.82 69.16 70.29 69.46 69.99 70.25 70.17 70.35 70.37 70.60 70.19 70.04 70.10 69.92 69.04 68.45 68.29 69.40 69.59 69.15 68.56 67.20 66.29 64.64 63.74 63.47 62.75 62.23 63.12 63.08 63.05 65.52 65.60 65.80 64.89 65.76 66.52 65.96 65.71 65.52
61.26 61.88 65.36 67.40 67.77 68.32 68.63 70.17 69.37 69.45 69.27 68.99 68.62 68.96 68.78 69.20 68.83 67.43 68.02 68.45 67.91 66.87 67.57 67.05 65.84 64.48 63.50 62.60 61.15 60.58 60.53 60.82 62.12 63.59 64.45 64.81 64.78 65.19 64.71 65.45 65.87 65.76 65.27
61.34 62.29 64.29 65.41 65.59 66.92 68.06 68.86 68.03 67.99 68.07 68.20 67.46 66.91 67.89 68.16 67.73 67.08 66.53 67.17 67.09 66.02 64.56 64.25 63.35 63.05 62.07 61.55 60.26 59.12 59.72 60.96 61.43 61.45 62.73 63.37 64.38 64.30 63.89 63.55 64.17 64.20 64.95
61.21 61.53 62.69 63.23 63.61 63.42 63.49 65.03 65.99 64.99 65.61 66.72 66.47 66.49 67.48 67.28 67.28 66.76 65.23 65.31 65.61 64.96 63.53 63.58 62.14 60.38 59.97 61.14 58.80 57.15 57.64 59.73 60.24 60.49 62.13 61.72 62.67 63.38 62.75 63.01 63.40 62.95 63.14
60.78 61.83 62.61 63.00 63.56 63.73 63.71 63.50 64.37 65.10 65.61 66.06 66.45 66.18 67.11 66.69 66.41 65.98 64.61 64.21 65.22 64.57 63.85 62.38 60.63 58.66 58.13 60.31 56.74 56.13 53.09 55.53 58.24 59.85 60.78 60.98 61.29 60.87 60.89 61.58 61.04 62.12 61.82
60.72 61.71 62.44 63.20 63.58 63.96 63.76 63.59 63.71 64.13 64.63 63.75 64.02 64.20 66.05 66.28 66.38 65.52 65.17 64.12 64.50 64.43 63.02 61.39 60.42 58.41 56.46 58.35 58.60 56.83 52.96 51.34 54.75 58.01 59.37 60.16 60.04 60.09 59.73 60.01 59.49 60.58 60.50
60.94 62.58 62.77 63.24 63.51 63.82 63.75 62.30 62.06 61.33 60.87 62.66 63.32 64.55 65.38 65.58 65.26 64.89 63.89 63.89 63.97 63.55 62.72 60.58 60.96 60.27 58.58 57.00 58.49 57.23 56.03 56.70 51.38 51.65 56.93 59.24 59.76 58.90 58.53 60.26 59.08 59.80 60.56
61.66 62.31 62.95 63.42 63.40 63.56 62.72 62.36 61.82 61.40 61.89 62.99 63.63 63.99 64.53 65.07 64.92 64.33 63.14 63.31 62.81 63.80 63.09 62.53 61.69 60.46 59.38 58.18 57.49 55.08 55.42 56.05 54.87 52.56 50.77 54.76 57.92 58.97 59.11 59.56 60.51 59.62 59.78
62.00 62.42 62.89 62.74 62.73 63.28 63.25 62.51 62.10 61.64 61.57 61.25 61.95 62.08 63.23 62.68 62.92 62.49 63.76 63.67 63.06 62.99 61.73 61.78 62.27 60.72 59.73 59.36 58.45 56.02 55.27 54.51 53.57 53.33 51.67 52.43 53.87 56.76 57.79 58.99 59.00 59.00 58.89